Tampa, FL

4:48 PM EST on January 16, 2018 (GMT -0500)
Tampa International

Weather History for KTPA - September, 2011

Change the Weather History Date:

Tuesday, September 6, 2011

  Actual Average Record
Temperature  
Mean Temperature 82 °F 83 °F  
Max Temperature 88 °F 90 °F 96 °F (1991)
Min Temperature 76 °F 76 °F 68 °F (1907)
Degree Days  
Heating Degree Days 0 0  
Month to date heating degree days 0 0  
Since 1 July heating degree days 0 0  
Cooling Degree Days 17 18  
Month to date cooling degree days 112 108  
Year to date cooling degree days 2985 2623  
Growing Degree Days 32 (Base 50)    
Moisture  
Dew Point 76 °F    
Average Humidity 80    
Maximum Humidity 91    
Minimum Humidity 68    
Precipitation  
Precipitation 1.10 in 0.24 in 3.09 in (2004)
Month to date precipitation 1.67 1.51  
Year to date precipitation 44.20 35.23  
Sea Level Pressure  
Sea Level Pressure 29.86 in    
Wind  
Wind Speed 10 mph (SSW)    
Max Wind Speed 24 mph    
Max Gust Speed 32 mph    
Visibility 8 miles    
Events Rain , Thunderstorm    
T = Trace of Precipitation, MM = Missing Value Source: NWS Daily Summary

Daily Weather History Graph

Daily Weather History Graph

Search for Another Location

Airport or City:

Trip Planner

Search our weather history database for the weather conditions in past years. The results will help you decide how hot, cold, wet, or windy it might be!

Date:

Astronomy

Sep. 06, 2011 Rise Set
Actual Time 7:10 AM EDT 7:45 PM EDT
Civil Twilight 6:47 AM EDT 8:09 PM EDT
Nautical Twilight 6:19 AM EDT 8:37 PM EDT
Astronomical Twilight 5:51 AM EDT 9:05 PM EDT
Moon 3:58 PM EDT (9/6) 1:47 AM EDT (9/6)
Length of Visible Light 13h 22m
Length of Day
12h 34m
Waxing Gibbous, 70% of the Moon is Illuminated
Sep 6
Waxing Gibbous
Sep 12
Full
Sep 20
Last Quarter
Sep 27
New
Oct 3
First Quarter

Hourly Weather History & Observations

Time (EDT) Temp. Heat Index Dew Point Humidity Pressure Visibility Wind Dir Wind Speed Gust Speed Precip Events Conditions
12:18 AM 84.2 °F 96.1 °F 78.8 °F 84% 29.83 in 10.0 mi South 9.2 mph - N/A   Mostly Cloudy
12:53 AM 82.9 °F 92.8 °F 78.1 °F 85% 29.82 in 10.0 mi SSE 9.2 mph - N/A   Mostly Cloudy
1:53 AM 82.9 °F 92.8 °F 78.1 °F 85% 29.81 in 10.0 mi SSE 9.2 mph - N/A   Mostly Cloudy
2:53 AM 82.9 °F 92.8 °F 78.1 °F 85% 29.80 in 10.0 mi SSE 6.9 mph - N/A   Mostly Cloudy
3:53 AM 82.9 °F 90.8 °F 75.9 °F 79% 29.79 in 10.0 mi SSE 10.4 mph - N/A   Scattered Clouds
4:53 AM 82.0 °F 89.4 °F 75.9 °F 82% 29.79 in 10.0 mi SSE 8.1 mph - N/A   Mostly Cloudy
5:53 AM 82.0 °F 91.0 °F 78.1 °F 88% 29.79 in 10.0 mi South 9.2 mph - 0.05 in   Mostly Cloudy
6:18 AM 80.6 °F 86.2 °F 75.2 °F 84% 29.82 in 8.0 mi SSW 13.8 mph 19.6 mph 0.00 in Rain , Thunderstorm Thunderstorms and Rain
6:34 AM 78.8 °F - 75.2 °F 89% 29.82 in 2.0 mi WSW 10.4 mph 21.9 mph 0.17 in Rain , Thunderstorm Thunderstorms and Rain
6:38 AM 78.8 °F - 73.4 °F 83% 29.82 in 4.0 mi West 10.4 mph 20.7 mph 0.17 in Rain , Thunderstorm Light Thunderstorms and Rain
6:53 AM 79.0 °F - 75.0 °F 88% 29.81 in 10.0 mi SSW 6.9 mph - 0.17 in Thunderstorm Thunderstorm
7:21 AM 84.2 °F 96.1 °F 78.8 °F 84% 29.83 in 10.0 mi South 13.8 mph 21.9 mph N/A   Mostly Cloudy
7:50 AM 78.8 °F - 75.2 °F 89% 29.87 in 7.0 mi West 18.4 mph 32.2 mph 0.00 in Rain Light Rain
7:51 AM 78.1 °F - 75.0 °F 90% 29.87 in 7.0 mi WSW 23.0 mph 33.4 mph 0.00 in Rain Light Rain
7:58 AM 77.0 °F - 73.4 °F 89% 29.86 in 4.0 mi West 16.1 mph 33.4 mph 0.00 in Rain Light Rain
8:27 AM 77.0 °F - 73.4 °F 89% 29.88 in 8.0 mi SSW 13.8 mph 24.2 mph 0.01 in Rain Light Rain
8:53 AM 78.1 °F - 73.9 °F 87% 29.88 in 9.0 mi SW 20.7 mph 28.8 mph 0.02 in Rain Light Rain
9:05 AM 77.0 °F - 73.4 °F 89% 29.89 in 1.0 mi WSW 23.0 mph 32.2 mph 0.05 in Rain , Thunderstorm Thunderstorms and Rain
9:17 AM 77.0 °F - 73.4 °F 89% 29.89 in 2.5 mi WSW 17.3 mph 26.5 mph 0.17 in Rain , Thunderstorm Thunderstorms and Rain
9:26 AM 77.0 °F - 73.4 °F 89% 29.89 in 8.0 mi SW 13.8 mph - N/A Rain Light Rain
9:38 AM 75.2 °F - 73.4 °F 94% 29.89 in 2.0 mi SW 12.7 mph - 0.33 in Rain Rain
9:53 AM 77.0 °F - 73.4 °F 89% 29.90 in 3.0 mi SW 18.4 mph 26.5 mph N/A Rain Light Rain
10:53 AM 79.0 °F - 75.9 °F 90% 29.90 in 9.0 mi South 10.4 mph - 0.05 in Rain Light Rain
11:53 AM 82.0 °F 89.4 °F 75.9 °F 82% 29.90 in 10.0 mi SW 9.2 mph - 0.00 in   Overcast
12:46 PM 84.2 °F 94.1 °F 77.0 °F 79% 29.89 in 10.0 mi SW 11.5 mph - N/A   Mostly Cloudy
12:53 PM 84.0 °F 92.6 °F 75.9 °F 76% 29.89 in 10.0 mi WSW 9.2 mph - N/A   Mostly Cloudy
1:53 PM 86.0 °F 95.1 °F 75.0 °F 70% 29.87 in 10.0 mi SW 9.2 mph - N/A   Mostly Cloudy
2:53 PM 88.0 °F 98.5 °F 75.9 °F 67% 29.87 in 10.0 mi SW 15.0 mph - N/A   Mostly Cloudy
3:53 PM 86.0 °F 95.1 °F 75.0 °F 70% 29.86 in 10.0 mi SSW 11.5 mph - N/A   Mostly Cloudy
4:47 PM 84.2 °F 92.3 °F 75.2 °F 74% 29.86 in 10.0 mi South 11.5 mph 19.6 mph N/A   Overcast
4:53 PM 84.9 °F 95.3 °F 77.0 °F 77% 29.86 in 10.0 mi SSW 11.5 mph 19.6 mph N/A   Overcast
5:53 PM 82.9 °F 91.8 °F 77.0 °F 82% 29.86 in 8.0 mi South 9.2 mph - 0.00 in   Overcast
6:53 PM 82.4 °F 90.9 °F 77.0 °F 84% 29.88 in 8.0 mi SSE 8.1 mph - N/A Rain Light Rain
7:00 PM 82.4 °F 90.9 °F 77.0 °F 84% 29.88 in 2.0 mi SSE 5.8 mph - 0.02 in   Haze
7:20 PM 80.6 °F 88.1 °F 78.8 °F 94% 29.87 in 8.0 mi WNW 4.6 mph - 0.05 in   Overcast
7:28 PM 80.6 °F 87.1 °F 77.0 °F 89% 29.88 in 1.0 mi Calm Calm - 0.21 in Rain Rain
7:53 PM 78.8 °F - 75.2 °F 89% 29.89 in 1.0 mi SSW 10.4 mph - N/A Rain Light Rain
8:05 PM 78.8 °F - 73.4 °F 83% 29.89 in 8.0 mi SSW 8.1 mph - 0.00 in Rain Light Rain
8:53 PM 80.1 °F 85.8 °F 77.0 °F 90% 29.89 in 10.0 mi Calm Calm - 0.00 in   Overcast
9:53 PM 80.1 °F 85.8 °F 77.0 °F 90% 29.91 in 10.0 mi South 4.6 mph - N/A   Overcast
10:53 PM 78.8 °F - 75.2 °F 89% 29.93 in 10.0 mi South 4.6 mph - N/A   Overcast
11:53 PM 80.1 °F 85.8 °F 77.0 °F 90% 29.93 in 10.0 mi South 9.2 mph - 0.01 in   Mostly Cloudy